Voltar ao catálogo

STARLINK-30375

AtivoComunicaçõesVLEO
NORAD 57732·PAYLOAD·🇺🇸 United States

Lançado Sep 1, 2023 de Cape Canaveral Space Force Station

Loading…

Próximas Passagens (próximas 24 horas)

TLE

AtualizadoSource: CelesTrak SupGP

Época: Sep 14, 2026, 22:34 UTC

1 57732C 23131A   26257.94076389 -.00009570  00000+0 -34670-3 0  2574
2 57732  43.0016 168.8243 0001339 259.1505 126.3568 15.27577522    10

Acompanhe STARLINK-30375 em tempo real com AllMySat

Download on the App Store